Flag for South Africa Weather past 2 weeks in Cape Town, South Africa

Now
57 °F

Passing clouds.


Feels Like: 52 °F
Forecast: 57 / 63 °F
Wind: 24 mph from South

Location: Cape Town International Airport

Current Time: Aug 30, 2015 at 4:07:48 AM

Latest Report: Aug 30, 2015 at 3:00 AM


Visibility: N/A

Pressure: 30.07 "Hg

Humidity: 67%

Dew point: 46 °F

Location of Cape TownLocation

Historic Weather in Cape Town — Graph

°F

Cape Town temperature yesterday

Maximum temperature yesterday: 64 °F (at 3:00 PM)
Minimum temperature yesterday: 55 °F (at 12:00 AM)
Average temperature yesterday: 58 °F

Past Weeks' High & Low Weather Summary

 TemperatureHumidityPressure
High75 °F (Aug 21, 3:00 PM)100% (Aug 15, 2:00 AM)30.33 "Hg (Aug 15, 2:00 AM)
Low43 °F (Aug 17, 6:00 AM)41% (Aug 21, 3:00 PM)29.89 "Hg (Aug 15, 3:00 AM)
Average58 °F85%30.08 "Hg
* Reported Aug 15 2:00 AM — Aug 30 2:00 AM, Cape Town, Weather by CustomWeather, © 2015

Note: Actual official high and low records may vary slightly from our data, if they occured in-between our weather recording intervals... More about our weather records

Advertising

Cape Town weather history for previous 24 hours

 ConditionsComfort  
Time TempWeatherWind HumidityBarometerVisibility
2:00 AM
Sun, Aug 30
57 °FPassing clouds.23 mph67%30.12 "HgN/A
1:00 AM57 °FPassing clouds.21 mph67%30.12 "HgN/A
12:00 AM57 °FPassing clouds.28 mph72%30.15 "HgN/A
11:00 PM
Sat, Aug 29
57 °FPassing clouds.17 mph72%30.15 "HgN/A
10:00 PM57 °FPassing clouds.14 mph72%30.15 "HgN/A
9:00 PM57 °FPassing clouds.16 mph72%30.15 "HgN/A
8:00 PM57 °FPassing clouds.20 mph72%30.15 "HgN/A
7:00 PM57 °FPassing clouds.20 mph77%30.12 "HgN/A
6:00 PM59 °FPassing clouds.18 mph72%30.12 "HgN/A
5:00 PM61 °FPassing clouds.21 mph63%30.09 "HgN/A
4:00 PM63 °FPassing clouds.21 mph59%30.09 "HgN/A
3:00 PM64 °FScattered clouds.18 mph56%30.12 "HgN/A
2:00 PM63 °FPartly sunny.17 mph64%30.15 "HgN/A
1:00 PM63 °FPartly sunny.14 mph68%30.15 "HgN/A
12:00 PM61 °FPartly sunny.13 mph72%30.18 "HgN/A
11:00 AM59 °FPartly sunny.2 mph82%30.18 "HgN/A
10:00 AM55 °FPartly sunny.2 mph88%30.18 "HgN/A
9:00 AM55 °FDrizzle. Mostly cloudy.5 mph88%30.18 "Hg4 mi
8:00 AM55 °FPartly sunny.6 mph82%30.15 "HgN/A
7:00 AM55 °FPartly sunny.9 mph82%30.12 "HgN/A
6:00 AM55 °FPartly cloudy.10 mph77%30.09 "HgN/A
5:00 AM55 °FPartly cloudy.9 mph77%30.09 "HgN/A
4:00 AM55 °FPartly cloudy.7 mph77%30.07 "HgN/A
Weather by CustomWeather, © 2015

See weather overviewHow to use our weather pages